Weather WX

World > North America > United States > Minnesota

Rothsay, Minnesota Regional Weather

Lat: 46.47N, Lon: 96.29W
Wx Zone: MNZ030
Feedback

Rothsay, MN Regional Weather

Expires:201906240900;;989918
ASUS43 KMPX 240810
RWRMN 
WEATHER ROUNDUP FOR MINNESOTA
NATIONAL WEATHER SERVICE TWIN CITIES/CHANHASSEN MN
300 AM CDT MON JUN 24 2019


NOTE: "FAIR" INDICATES FEW OR NO CLOUDS BELOW 12,000 FEET WITH NO
SIGNIFICANT WEATHER AND/OR OBSTRUCTIONS TO VISIBILITY. N/A MEANS
CURRENT SKY AND/OR WEATHER CONDITIONS ARE NOT AVAILABLE.


MNZ029>031-032-039>041-046>048-054>057-064-240900-
   West Central Minnesota   
  
CITY           SKY/WX    TMP DP  RH WIND       PRES   REMARKS
FERGUS FALLS   DRIZZLE   61  55  82 N3        29.67F                  
WHEATON        MOCLDY    63  54  72 W3        29.69F                  
MORRIS         RAIN      61  57  88 W7        29.63S                  
ALEXANDRIA     CLOUDY    63  57  81 NW9       29.66F                  
WADENA         RAIN      59  59 100 CALM      29.66S                  
GLENWOOD       CLOUDY    61  61 100 W7        29.67R                  
APPLETON       LGT RAIN  63  55  77 W10       29.67F                  
BENSON         DRIZZLE   61  57  88 NW5       29.68S                  
ORTONVILLE     LGT RAIN  61  55  82 W7        29.69F                  
MADISON        PTCLDY    63  55  77 NW8       29.68F                  
WILLMAR        LGT RAIN  63  57  82 NW12      29.69S                  
$$

SKY/WX - Weather  TMP - Temperature  DP - Dew Point  RH - Relative Humidity
WIND - Wind Direction/Speed PRES - Barometric Pressure VSB - Visibility
WCI - Wind Chill Index E13G22 Wind - East Wind 13 mph/Gusts of 22 mph